Погода в Инчэне

Китай     44°13′41″N   126°01′30″E
темп.,
°C
ветер,
м/с
пор.,
м/с
влажн.,
%
обл.,
%
осадки,
мм/ч
давл.,
гПа
погр.,
м
18 апреля, вс
вс1823:00+5сз23685 0.0 101650
02:00+3сз22775 0.0 101520
05:00+2з22834 0.0 101615
08:00+8зюз34550 0.0 1016637
11:00+13зюз44300 0.0 10141638
14:00+16зюз45220 0.0 10101837
17:00+16зюз56200 0.0 10081763
20:00+11ю34260 0.0 100947
19 апреля, пн
пн1923:00+9ююв412320 0.0 1007204
02:00+8ю5113592 0.0 1006232
05:00+7ю493699 0.0 1006184
08:00+13зюз45260 0.0 1007477
11:00+19ссз68200 0.0 10081249
14:00+18ссз910240 0.0 10091817
17:00+15ссз810190 0.0 10131734
20:00+9с611240 0.0 1017682
20 апреля, вт
вт2023:00+7с49290 0.0 1020290
02:00+4св22350 0.0 102110
05:00+3юв11360 0.0 102310
08:00+9ююз22200 0.0 1023681
11:00+13з33150 0.0 10221501
14:00+16з33121 0.0 10201554
17:00+16юз22131 0.0 10181202
20:00+12ююв22181 0.0 102014
21 апреля, ср
ср2123:00+11юв342159 0.0 102041
02:00+9юв342424 0.0 101858
05:00+10ююв482694 0.0 1018127
08:00+17ююз8132955 0.0 1017879
11:00+24юз9122411 0.0 10151637
14:00+26зюз101218100 0.0 10132127
17:00+24зюз71115100 0.0 10141477
20:00+19юз51217100 0.0 1016407
22 апреля, чт
чт2223:00+17юз61513100 0.0 1017649
02:00+15юз41020100 0.0 1018344
05:00+13ююв3423100 0.0 101976
08:00+16ююв2323100 0.0 1020275
11:00+20ююв1321100 0.0 10201632
14:00+21вюв2420100 0.0 10192144
17:00+20с1124100 0.0 101927
20:00+16сз3634100 0.0 1022141